FW3611 Weather Reports


Display with metric or nautical units.
time (UTC)temp
F
wind
direction
speed
MPH
gust
MPH
rain 1hr
in
rain 24hr
in
rain mn
in
humidity
%
barometer
mb
20260831101214 74 123 1.0 3.0 0.00 0.10 0.01 96 1018.9
20260831100713 74 123 1.0 3.0 0.00 0.10 0.01 96 1018.8
20260831100212 74 123 2.0 3.0 0.00 0.10 0.01 96 1018.8
20260831095708 74 123 2.0 4.0 0.00 0.10 0.01 96 1018.7
20260831094709 75 123 2.0 3.0 0.00 0.10 0.01 96 1018.5
20260831094210 75 123 1.0 3.0 0.00 0.10 0.01 96 1018.5
20260831093710 75 123 1.0 3.0 0.00 0.10 0.01 96 1018.5
20260831093209 75 123 1.0 2.0 0.00 0.10 0.01 96 1018.5
20260831092708 75 123 1.0 2.0 0.00 0.10 0.01 96 1018.5
20260831092208 75 123 1.0 2.0 0.00 0.10 0.01 96 1018.6
20260831091707 75 123 1.0 3.0 0.00 0.10 0.01 96 1018.6
20260831091206 75 123 1.0 3.0 0.00 0.10 0.01 96 1018.6
20260831090207 75 123 2.0 4.0 0.00 0.10 0.01 96 1018.5
20260831085206 75 123 1.0 3.0 0.00 0.10 0.01 96 1018.6
20260831084707 75 123 2.0 3.0 0.00 0.10 0.01 96 1018.7
20260831083708 75 123 2.0 3.0 0.00 0.10 0.01 96 1018.6
20260831083206 75 123 2.0 5.0 0.00 0.10 0.01 96 1018.6
20260831082706 75 123 2.0 5.0 0.00 0.10 0.01 96 1018.8
20260831082204 75 125 2.0 5.0 0.01 0.10 0.01 96 1018.8
20260831081203 75 162 1.0 4.0 0.01 0.10 0.01 96 1018.8
20260831080702 75 162 0.0 4.0 0.01 0.10 0.01 96 1018.8
20260831080203 75 161 0.0 0.0 0.01 0.10 0.01 96 1018.9
20260831075204 75 161 0.0 1.0 0.01 0.10 0.01 96 1018.9
20260831074203 75 161 1.0 4.0 0.01 0.10 0.01 96 1018.9
20260831073705 75 161 1.0 4.0 0.01 0.10 0.01 96 1018.9
20260831073210 75 161 1.0 4.0 0.01 0.10 0.01 96 1018.9
20260831072707 75 161 1.0 4.0 0.01 0.10 0.01 96 1018.8
20260831072209 75 161 1.0 4.0 0.00 0.09 0.00 96 1018.9
20260831071209 75 162 1.0 4.0 0.00 0.09 0.00 96 1018.8
20260831070704 75 162 1.0 4.0 0.00 0.09 0.00 96 1018.7
20260831070202 75 162 2.0 4.0 0.00 0.09 0.00 96 1018.8
20260831065700 74 162 1.0 4.0 0.00 0.09 0.00 96 1018.8
20260831065202 74 162 1.0 2.0 0.00 0.09 0.00 96 1018.8
20260831064704 74 162 0.0 2.0 0.00 0.09 0.00 96 1018.6
20260831064202 75 162 0.0 1.0 0.00 0.09 0.00 96 1018.7
20260831063200 75 162 0.0 1.0 0.00 0.09 0.00 96 1018.8
20260831062703 75 162 0.0 1.0 0.00 0.09 0.00 96 1018.7
20260831062201 75 162 0.0 0.0 0.00 0.09 0.00 96 1018.8
20260831061701 75 162 0.0 0.0 0.00 0.09 0.00 96 1018.8
20260831061201 75 162 0.0 0.0 0.00 0.09 0.00 96 1018.7
20260831060702 75 162 0.0 0.0 0.00 0.09 0.00 96 1018.8
20260831060201 75 162 0.0 0.0 0.00 0.09 0.00 96 1018.7
20260831055659 75 162 0.0 0.0 0.00 0.09 0.00 96 1018.7
20260831055155 75 162 0.0 0.0 0.00 0.09 0.00 95 1018.8
20260831054653 75 162 0.0 0.0 0.00 0.09 0.00 95 1018.8
20260831054151 75 162 0.0 0.0 0.00 0.09 0.00 96 1018.9
20260831053652 75 162 0.0 0.0 0.00 0.09 0.00 95 1018.9
20260831053155 75 162 0.0 0.0 0.00 0.09 0.00 95 1018.9
20260831052648 75 162 0.0 0.0 0.00 0.09 0.00 95 1018.8
20260831052144 75 162 0.0 0.0 0.00 0.09 0.00 95 1018.8
20260831051646 75 162 0.0 0.0 0.00 0.09 0.00 95 1018.9
20260831050641 75 162 0.0 0.0 0.00 0.09 0.00 95 1018.9
20260831050138 75 162 0.0 0.0 0.00 0.09 0.00 95 1019.0
20260831045638 75 162 0.0 0.0 0.00 0.09 0.00 95 1019.0
20260831044633 75 162 0.0 0.0 0.00 0.09 0.00 95 1019.1
20260831043630 75 162 0.0 0.0 0.00 0.09 0.00 95 1019.1
20260831043133 75 162 0.0 0.0 0.00 0.09 0.00 95 1019.1
20260831042635 75 162 0.0 0.0 0.00 0.09 0.00 95 1019.2
20260831042129 76 162 0.0 0.0 0.00 0.09 0.00 95 1019.2
20260831035629 76 162 0.0 0.0 0.00 0.09 0.09 95 1019.2
20260831035130 76 162 0.0 0.0 0.00 0.09 0.09 95 1019.3
20260831034629 76 162 0.0 0.0 0.00 0.09 0.09 95 1019.3
20260831033630 76 162 0.0 0.0 0.00 0.09 0.09 95 1019.3
20260831033126 76 162 0.0 0.0 0.00 0.09 0.09 95 1019.4
20260831032627 76 162 0.0 0.0 0.00 0.09 0.09 95 1019.5
20260831032126 76 162 0.0 0.0 0.00 0.09 0.09 95 1019.6
20260831031624 77 162 0.0 0.0 0.00 0.09 0.09 95 1019.6
20260831031125 77 162 0.0 0.0 0.00 0.09 0.09 95 1019.6
20260831030125 77 162 0.0 0.0 0.00 0.09 0.09 95 1019.6
20260831025124 77 162 0.0 0.0 0.00 0.09 0.09 95 1019.5
20260831024625 77 162 0.0 0.0 0.00 0.09 0.09 95 1019.5
20260831024129 77 162 0.0 0.0 0.00 0.09 0.09 95 1019.5
20260831023130 77 162 0.0 0.0 0.00 0.09 0.09 95 1019.5
20260831022628 77 162 0.0 0.0 0.00 0.09 0.09 95 1019.6
20260831022128 77 162 0.0 0.0 0.00 0.09 0.09 95 1019.5
20260831020621 77 162 0.0 0.0 0.00 0.09 0.09 95 1019.8
20260831020117 77 162 0.0 2.0 0.00 0.09 0.09 95 1019.8
20260831015622 77 162 0.0 2.0 0.00 0.09 0.09 95 1019.8
20260831014111 78 162 0.0 2.0 0.00 0.09 0.09 95 1019.7
20260831013605 78 162 1.0 2.0 0.00 0.09 0.09 95 1019.8
20260831013105 78 162 1.0 2.0 0.00 0.09 0.09 95 1019.6
20260831012604 78 162 0.0 4.0 0.00 0.09 0.09 95 1019.5
20260831011604 78 162 0.0 2.0 0.01 0.09 0.09 95 1019.5
20260831011104 78 162 0.0 2.0 0.01 0.09 0.09 95 1019.4
20260831010108 78 162 0.0 0.0 0.01 0.09 0.09 94 1019.1
20260831005606 78 162 0.0 0.0 0.01 0.09 0.09 94 1019.1
20260831005103 78 162 0.0 0.0 0.02 0.09 0.09 94 1019.1
20260831004605 78 162 0.0 0.0 0.02 0.09 0.09 94 1019.0
20260831004103 78 162 0.0 0.0 0.02 0.09 0.09 94 1019.0
20260831003600 78 162 0.0 0.0 0.03 0.09 0.09 94 1019.0
20260831003102 78 162 0.0 0.0 0.03 0.09 0.09 94 1019.0
20260831002559 78 162 0.0 0.0 0.03 0.09 0.09 94 1019.0
20260831002059 78 162 0.0 0.0 0.02 0.08 0.08 94 1019.0
20260831001556 78 162 0.0 0.0 0.03 0.08 0.08 94 1019.1
20260831000552 78 162 0.0 0.0 0.03 0.08 0.08 94 1019.0
20260831000048 78 162 0.0 0.0 0.03 0.08 0.08 94 1018.8
20260830235551 78 162 0.0 0.0 0.03 0.08 0.08 94 1018.8
20260830235047 78 162 0.0 0.0 0.03 0.07 0.07 94 1018.7
20260830234545 78 162 0.0 0.0 0.03 0.07 0.07 93 1018.6
20260830233542 78 162 0.0 0.0 0.02 0.06 0.06 93 1018.7
20260830232036 77 162 0.0 0.0 0.03 0.06 0.05 93 1018.7
20260830231535 77 162 0.0 0.0 0.02 0.05 0.05 93 1018.7
20260830231032 77 162 0.0 0.0 0.02 0.05 0.05 93 1018.8
20260830230536 77 162 0.0 0.0 0.02 0.05 0.05 93 1018.8
20260830230039 77 162 0.0 3.0 0.03 0.05 0.05 93 1018.8
20260830225543 77 162 1.0 3.0 0.03 0.05 0.05 93 1018.9
20260830224530 77 162 1.0 4.0 0.03 0.04 0.04 92 1019.1
20260830224034 78 162 1.0 4.0 0.03 0.04 0.04 92 1019.1
20260830222529 77 162 1.0 2.0 0.02 0.03 0.03 92 1018.9
20260830222031 77 162 0.0 2.0 0.03 0.03 0.03 91 1018.8
20260830221537 77 162 0.0 1.0 0.03 0.03 0.03 91 1018.9
20260830221031 77 162 1.0 2.0 0.03 0.03 0.03 91 1019.1
20260830220536 77 162 1.0 2.0 0.03 0.03 0.03 91 1019.0
20260830215533 77 162 0.0 2.0 0.02 0.02 0.02 91 1018.8
20260830215035 77 162 0.0 2.0 0.02 0.02 0.01 91 1018.8
20260830214531 77 162 1.0 2.0 0.01 0.01 0.01 91 1019.0
20260830214028 78 162 1.0 5.0 0.01 0.01 0.01 90 1019.0
20260830213527 78 162 1.0 5.0 0.01 0.01 0.01 90 1019.0
20260830212526 78 162 1.0 5.0 0.01 0.01 0.01 89 1018.8
20260830212027 78 162 2.0 5.0 0.00 0.00 0.00 89 1018.9
20260830211526 78 162 2.0 6.0 0.00 0.00 0.00 89 1019.1
20260830211027 78 117 1.0 6.0 0.00 0.00 0.00 88 1019.0
20260830210011 79 138 2.0 7.0 0.00 0.00 0.00 87 1018.9
20260830205505 80 65 2.0 8.0 0.00 0.00 0.00 87 1019.0
20260830205001 81 181 2.0 8.0 0.00 0.00 0.00 85 1019.0
20260830204502 82 160 2.0 12.0 0.00 0.00 0.00 82 1019.0
20260830203502 83 146 4.0 11.0 0.00 0.00 0.00 77 1018.7
20260830202007 88 95 4.0 11.0 0.00 0.00 0.00 71 1018.5
20260830201506 88 60 5.0 11.0 0.00 0.00 0.00 70 1018.4
20260830201008 88 56 6.0 11.0 0.00 0.00 0.00 69 1018.4
20260830200506 89 67 6.0 12.0 0.00 0.00 0.00 67 1018.3
20260830200004 90 58 5.0 12.0 0.00 0.00 0.00 66 1018.4
20260830195501 91 37 4.0 10.0 0.00 0.00 0.00 67 1018.5
20260830195002 91 52 3.0 9.0 0.00 0.00 0.00 66 1018.7
20260830194502 90 35 4.0 9.0 0.00 0.00 0.00 71 1018.7
20260830193958 89 50 3.0 9.0 0.00 0.00 0.00 68 1018.7
20260830192950 88 51 5.0 11.0 0.00 0.00 0.00 70 1018.9
20260830192452 89 68 4.0 12.0 0.00 0.00 0.00 69 1018.9
20260830191952 90 68 3.0 12.0 0.00 0.00 0.00 66 1018.9
20260830191449 90 88 4.0 11.0 0.00 0.00 0.00 67 1018.9
20260830190947 89 59 4.0 11.0 0.00 0.00 0.00 66 1018.9
20260830190444 89 39 5.0 9.0 0.00 0.00 0.00 67 1019.0
20260830185444 89 56 4.0 13.0 0.00 0.00 0.00 65 1018.9
20260830184943 90 29 3.0 9.0 0.00 0.00 0.00 66 1019.0
20260830184443 90 35 5.0 12.0 0.00 0.00 0.00 70 1019.1
20260830183942 89 34 4.0 12.0 0.00 0.00 0.00 68 1019.2
20260830183442 90 72 3.0 9.0 0.00 0.00 0.00 70 1019.3
20260830182438 89 64 4.0 9.0 0.00 0.00 0.00 71 1019.3
20260830181932 88 16 5.0 8.0 0.00 0.00 0.00 68 1019.4
20260830181431 89 18 5.0 10.0 0.00 0.00 0.00 70 1019.5
20260830180931 89 8 5.0 10.0 0.00 0.00 0.00 70 1019.6
20260830175932 88 356 4.0 11.0 0.00 0.00 0.00 71 1019.8
20260830175439 88 3 4.0 13.0 0.00 0.00 0.00 69 1019.8
20260830174444 88 60 4.0 10.0 0.00 0.00 0.00 72 1020.0
20260830173940 88 59 5.0 10.0 0.00 0.00 0.00 71 1020.1
20260830173431 87 39 4.0 10.0 0.00 0.00 0.00 72 1020.3
20260830172930 87 62 3.0 10.0 0.00 0.00 0.00 74 1020.5
20260830172430 86 71 4.0 11.0 0.00 0.00 0.00 74 1020.5
20260830171930 87 71 4.0 11.0 0.00 0.00 0.00 74 1020.6
20260830171435 87 114 4.0 9.0 0.00 0.00 0.00 71 1020.6
20260830170930 88 121 3.0 9.0 0.00 0.00 0.00 73 1020.4
20260830170441 87 70 5.0 14.0 0.00 0.00 0.00 75 1020.5
20260830164930 86 147 6.0 16.0 0.00 0.00 0.00 76 1020.7
20260830163931 86 65 5.0 15.0 0.00 0.00 0.00 76 1021.0
20260830162929 86 78 3.0 8.0 0.00 0.00 0.00 76 1021.2
20260830162433 86 58 3.0 9.0 0.00 0.00 0.00 76 1021.1
20260830161931 87 121 5.0 16.0 0.00 0.00 0.00 76 1021.2
20260830161429 87 121 6.0 16.0 0.00 0.00 0.00 75 1021.1
20260830160929 88 53 4.0 14.0 0.00 0.00 0.00 73 1021.2
20260830160431 88 119 6.0 14.0 0.00 0.00 0.00 75 1021.2
20260830154929 86 44 7.0 16.0 0.00 0.00 0.00 76 1021.4
20260830154429 86 52 7.0 16.0 0.00 0.00 0.00 75 1021.5
20260830153929 86 50 7.0 14.0 0.00 0.00 0.00 77 1021.6
20260830153431 86 70 7.0 16.0 0.00 0.00 0.00 78 1021.6
20260830152940 85 30 7.0 16.0 0.00 0.00 0.00 79 1021.5
20260830151929 86 49 5.0 13.0 0.00 0.00 0.00 80 1021.5
20260830151429 85 58 6.0 13.0 0.00 0.00 0.00 80 1021.4
20260830150929 85 85 6.0 13.0 0.00 0.00 0.00 80 1021.4
20260830150430 85 61 6.0 11.0 0.00 0.00 0.00 82 1021.4
20260830145930 84 58 6.0 10.0 0.00 0.00 0.00 83 1021.3
20260830144934 83 46 6.0 13.0 0.00 0.00 0.00 85 1021.6
20260830144436 83 54 6.0 13.0 0.00 0.00 0.00 84 1021.7
20260830143934 83 68 6.0 10.0 0.00 0.00 0.00 84 1021.6
20260830143437 83 56 6.0 10.0 0.00 0.00 0.00 85 1021.5
20260830142929 83 66 5.0 10.0 0.00 0.00 0.00 85 1021.4
20260830142427 83 56 4.0 8.0 0.00 0.00 0.00 85 1021.4
20260830141928 83 37 5.0 10.0 0.00 0.00 0.00 86 1021.4
20260830140423 82 62 4.0 10.0 0.00 0.00 0.00 88 1021.4
20260830135921 82 70 5.0 9.0 0.00 0.00 0.00 89 1021.3
20260830135422 82 56 6.0 10.0 0.00 0.00 0.00 90 1021.4
20260830134921 81 42 5.0 10.0 0.00 0.00 0.00 91 1021.4
20260830133921 80 67 5.0 11.0 0.00 0.00 0.00 95 1021.3
20260830133419 79 60 6.0 11.0 0.00 0.00 0.00 96 1021.4
20260830132422 78 33 4.0 6.0 0.00 0.00 0.00 96 1021.3
20260830131936 78 6 3.0 6.0 0.00 0.00 0.00 96 1021.1
20260830131421 77 17 3.0 9.0 0.00 0.00 0.00 96 1021.1
20260830130918 77 12 3.0 9.0 0.00 0.00 0.00 96 1021.1
20260830130417 76 19 4.0 9.0 0.00 0.00 0.00 96 1021.1
20260830125917 76 17 4.0 9.0 0.00 0.00 0.00 96 1021.3
20260830125413 76 48 3.0 7.0 0.00 0.00 0.00 96 1021.3
20260830124913 77 14 3.0 8.0 0.00 0.00 0.00 97 1021.1
20260830123909 76 23 3.0 8.0 0.00 0.01 0.00 96 1021.1
20260830123410 76 17 3.0 8.0 0.00 0.01 0.00 96 1021.1
20260830122908 76 43 2.0 5.0 0.00 0.01 0.00 96 1021.1
20260830121909 75 43 2.0 5.0 0.00 0.01 0.00 96 1020.9
20260830121405 75 43 2.0 4.0 0.00 0.01 0.00 96 1020.9
20260830120403 75 43 2.0 3.0 0.00 0.01 0.00 96 1020.8
20260830115403 75 43 2.0 5.0 0.00 0.01 0.00 96 1020.7
20260830114354 74 43 2.0 4.0 0.00 0.01 0.00 96 1020.7
20260830113853 74 43 2.0 5.0 0.00 0.01 0.00 96 1020.8
20260830113354 74 43 3.0 5.0 0.00 0.01 0.00 96 1020.7
20260830112901 74 43 2.0 4.0 0.00 0.01 0.00 96 1020.7
20260830112403 74 43 2.0 4.0 0.00 0.01 0.00 96 1020.7
20260830111858 74 43 3.0 5.0 0.00 0.01 0.00 96 1020.8
20260830110854 74 41 2.0 5.0 0.00 0.01 0.00 96 1020.6
20260830105849 74 40 3.0 8.0 0.00 0.01 0.00 96 1020.1
20260830105541 74 40 3.0 8.0 0.00 0.01 0.00 96 1020.0
20260830104346 74 8 3.0 8.0 0.00 0.01 0.00 96 1019.8
20260830103854 74 31 3.0 6.0 0.00 0.01 0.00 95 1019.7
20260830102846 74 63 2.0 4.0 0.00 0.01 0.00 95 1019.6
20260830102342 74 63 2.0 3.0 0.00 0.01 0.00 95 1019.5
20260830101843 74 63 2.0 4.0 0.00 0.01 0.00 95 1019.4